Location: Unspecified
(0.0000°N, 0.0000°E)
Time: 01:57:33
(UTC-04:00)

Envisat - Pass Details

Date: 26 September 2021
Orbit: 764 x 766 km, 98.2° (Epoch: 27 October)

Event Time Altitude Azimuth Distance (km) Brightness Sun altitude
Rises 01:11:46 0° 358° (N) 3,212 6.2 -9.9°
Reaches altitude 10° 01:14:10 10° 351° (N) 2,289 5.4 -9.3°
Maximum altitude 01:18:53 41° 282° (WNW) 1,104 3.4 -8.1°
Drops below altitude 10° 01:23:37 10° 213° (SSW) 2,298 5.2 -6.9°
Sets 01:26:03 0° 205° (SSW) 3,226 6.0 -6.3°
